�������l�o���
Date,Time,MP-1(��Sv/h),MP-2(��Sv/h),MP-3(��Sv/h),MP-4(��Sv/h),MP-5(��Sv/h),MP-6(��Sv/h),MP-7(��Sv/h),MP-8(��Sv/h),����,����(m/s),���J
2020/06/11,00:00,0.719,1.040,0.649,1.263,0.909,0.407,0.701,0.656,��,7.8,��
2020/06/11,00:10,0.720,1.035,0.650,1.262,0.913,0.406,0.703,0.656,��,8.1,��
2020/06/11,00:20,0.721,1.037,0.648,1.259,0.911,0.405,0.702,0.655,��,7.7,��
2020/06/11,00:30,0.722,1.039,0.649,1.261,0.909,0.406,0.702,0.656,��,7.4,��
2020/06/11,00:40,0.719,1.038,0.649,1.261,0.910,0.407,0.702,0.657,��,9.0,��
2020/06/11,00:50,0.720,1.038,0.650,1.262,0.909,0.406,0.702,0.656,��,7.6,��
2020/06/11,01:00,0.721,1.037,0.648,1.260,0.911,0.405,0.703,0.656,��,5.9,��
2020/06/11,01:10,0.722,1.037,0.651,1.260,0.913,0.407,0.702,0.657,��쐼,6.7,��
2020/06/11,01:20,0.721,1.041,0.649,1.260,0.914,0.407,0.704,0.656,��쐼,6.4,��
2020/06/11,01:30,0.722,1.039,0.651,1.260,0.910,0.405,0.703,0.655,��쐼,6.0,��
2020/06/11,01:40,0.722,1.040,0.652,1.259,0.911,0.406,0.704,0.658,��쐼,5.6,��
2020/06/11,01:50,0.722,1.040,0.650,1.260,0.911,0.406,0.703,0.657,��쐼,4.5,��
2020/06/11,02:00,0.722,1.039,0.651,1.260,0.911,0.406,0.704,0.657,��쐼,4.3,��
2020/06/11,02:10,0.724,1.040,0.651,1.260,0.913,0.407,0.703,0.656,��,4.3,��
2020/06/11,02:20,0.721,1.038,0.648,1.261,0.913,0.408,0.703,0.655,��,4.4,��
2020/06/11,02:30,0.722,1.040,0.652,1.262,0.911,0.407,0.703,0.655,��,5.0,��
2020/06/11,02:40,0.722,1.039,0.650,1.260,0.911,0.409,0.703,0.656,��,5.4,��
2020/06/11,02:50,0.721,1.040,0.649,1.260,0.911,0.407,0.702,0.656,��,5.2,��
2020/06/11,03:00,0.722,1.038,0.649,1.263,0.910,0.408,0.703,0.655,��,2.8,��
2020/06/11,03:10,0.720,1.038,0.649,1.260,0.909,0.405,0.702,0.658,��,3.2,��
2020/06/11,03:20,0.720,1.038,0.647,1.261,0.911,0.406,0.703,0.656,��,2.6,��
2020/06/11,03:30,0.719,1.036,0.649,1.262,0.910,0.407,0.703,0.657,��,3.9,��
2020/06/11,03:40,0.720,1.037,0.647,1.260,0.910,0.407,0.703,0.657,��,5.3,��
2020/06/11,03:50,0.720,1.037,0.648,1.259,0.910,0.407,0.703,0.656,��,5.8,��
2020/06/11,04:00,0.720,1.037,0.649,1.258,0.910,0.406,0.703,0.658,��쐼,4.7,��
2020/06/11,04:10,0.722,1.038,0.650,1.261,0.912,0.407,0.704,0.655,��,5.3,��
2020/06/11,04:20,0.722,1.037,0.651,1.261,0.910,0.408,0.704,0.657,��,6.1,��
2020/06/11,04:30,0.722,1.039,0.649,1.259,0.909,0.408,0.704,0.657,��쐼,4.8,��
2020/06/11,04:40,0.722,1.039,0.650,1.260,0.912,0.407,0.703,0.657,��쐼,4.2,��
2020/06/11,04:50,0.722,1.038,0.651,1.259,0.913,0.407,0.703,0.656,��,5.1,��
2020/06/11,05:00,0.722,1.039,0.649,1.260,0.909,0.407,0.703,0.656,��,5.7,��
2020/06/11,05:10,0.723,1.038,0.650,1.259,0.912,0.407,0.703,0.655,��쐼,5.6,��
2020/06/11,05:20,0.721,1.039,0.648,1.259,0.910,0.408,0.703,0.656,�쐼,4.9,��
2020/06/11,05:30,0.721,1.037,0.649,1.261,0.910,0.407,0.703,0.657,�쐼,4.6,��
2020/06/11,05:40,0.721,1.038,0.649,1.261,0.909,0.406,0.703,0.657,��쐼,4.5,��
2020/06/11,05:50,0.722,1.039,0.648,1.261,0.908,0.407,0.704,0.657,��쐼,3.7,��
2020/06/11,06:00,0.720,1.038,0.650,1.261,0.911,0.406,0.702,0.657,��,4.9,��
2020/06/11,06:10,0.723,1.037,0.649,1.261,0.911,0.407,0.701,0.656,��쐼,8.7,��
2020/06/11,06:20,0.722,1.038,0.649,1.260,0.908,0.405,0.702,0.657,��쐼,7.7,��
2020/06/11,06:30,0.720,1.040,0.650,1.262,0.910,0.407,0.704,0.656,��쐼,6.6,��
2020/06/11,06:40,0.722,1.040,0.650,1.260,0.910,0.406,0.703,0.657,��,3.8,��
2020/06/11,06:50,0.721,1.039,0.647,1.259,0.912,0.405,0.705,0.657,��쓌,3.4,��
2020/06/11,07:00,0.723,1.035,0.647,1.260,0.909,0.405,0.701,0.655,��,5.2,��
2020/06/11,07:10,0.723,1.037,0.648,1.261,0.911,0.405,0.702,0.656,��,7.0,��
2020/06/11,07:20,0.721,1.038,0.647,1.262,0.912,0.407,0.703,0.655,��,8.6,��
2020/06/11,07:30,0.722,1.039,0.651,1.261,0.910,0.406,0.702,0.656,��,6.8,��
2020/06/11,07:40,0.722,1.039,0.648,1.260,0.910,0.406,0.703,0.654,��,5.5,�L
2020/06/11,07:50,0.723,1.036,0.648,1.260,0.911,0.407,0.702,0.655,��쐼,4.8,�L
2020/06/11,08:00,0.721,1.034,0.650,1.262,0.909,0.406,0.702,0.655,��,5.3,�L
2020/06/11,08:10,0.721,1.036,0.649,1.261,0.910,0.407,0.702,0.654,��,5.1,��
2020/06/11,08:20,0.723,1.036,0.650,1.261,0.912,0.407,0.702,0.654,��,4.7,��
2020/06/11,08:30,0.723,1.036,0.648,1.261,0.907,0.407,0.703,0.653,��,3.0,��
2020/06/11,08:40,0.723,1.035,0.648,1.263,0.909,0.408,0.706,0.654,��쐼,4.2,��
2020/06/11,08:50,0.723,1.034,0.649,1.259,0.910,0.407,0.703,0.654,�쐼,4.9,��
2020/06/11,09:00,0.724,1.034,0.649,1.260,0.911,0.407,0.702,0.655,��쐼,5.2,��
2020/06/11,09:10,0.722,1.032,0.648,1.263,0.911,0.406,0.703,0.654,��쐼,3.6,��
2020/06/11,09:20,0.722,1.029,0.649,1.263,0.907,0.407,0.700,0.655,��,3.6,��
2020/06/11,09:30,0.720,1.030,0.651,1.262,0.909,0.407,0.702,0.655,��,4.2,��
2020/06/11,09:40,0.722,1.031,0.649,1.261,0.910,0.406,0.703,0.655,��,3.2,��
2020/06/11,09:50,0.721,1.033,0.652,1.260,0.912,0.407,0.702,0.654,��,4.5,��
2020/06/11,10:00,0.724,1.031,0.651,1.263,0.909,0.405,0.703,0.655,��쐼,5.4,��
2020/06/11,10:10,0.724,1.031,0.647,1.263,0.910,0.406,0.703,0.654,��쐼,6.0,��
2020/06/11,10:20,0.721,1.033,0.650,1.261,0.910,0.405,0.701,0.654,��쐼,5.5,��
2020/06/11,10:30,0.721,1.032,0.648,1.262,0.903,0.405,0.702,0.655,��쐼,5.9,��
2020/06/11,10:40,0.725,1.029,0.649,1.260,0.911,0.407,0.704,0.656,��쐼,5.3,��
2020/06/11,10:50,0.724,1.032,0.646,1.264,0.914,0.407,0.702,0.655,��쐼,5.8,��
2020/06/11,11:00,0.724,1.032,0.648,1.261,0.914,0.407,0.703,0.655,��쐼,6.7,��
2020/06/11,11:10,0.724,1.033,0.652,1.263,0.911,0.408,0.703,0.654,��쐼,6.2,��
2020/06/11,11:20,0.724,1.035,0.650,1.258,0.912,0.407,0.704,0.655,��쐼,7.0,��
2020/06/11,11:30,0.725,1.035,0.652,1.259,0.913,0.409,0.706,0.657,�쐼,7.1,��
2020/06/11,11:40,0.728,1.035,0.650,1.260,0.915,0.409,0.704,0.657,�쐼,4.9,��
2020/06/11,11:50,0.726,1.036,0.650,1.262,0.913,0.408,0.704,0.655,��쐼,5.7,��
2020/06/11,12:00,0.724,1.035,0.651,1.261,0.913,0.408,0.705,0.655,��쐼,5.2,��
2020/06/11,12:10,0.725,1.041,0.651,1.263,0.913,0.408,0.705,0.654,�쐼,6.0,��
2020/06/11,12:20,0.725,1.039,0.654,1.263,0.916,0.407,0.704,0.656,�쐼,7.5,��
2020/06/11,12:30,0.724,1.042,0.655,1.262,0.915,0.407,0.706,0.655,���쐼,7.3,��
2020/06/11,12:40,0.725,1.041,0.653,1.263,0.916,0.407,0.707,0.658,�쐼,3.3,��
2020/06/11,12:50,0.723,1.041,0.653,1.263,0.916,0.406,0.706,0.656,��,5.0,��
2020/06/11,13:00,0.722,1.042,0.651,1.262,0.914,0.405,0.705,0.656,��,4.9,��
2020/06/11,13:10,0.725,1.036,0.652,1.260,0.917,0.406,0.706,0.656,��,5.9,��
2020/06/11,13:20,0.725,1.037,0.653,1.260,0.916,0.407,0.706,0.657,��,4.4,��
2020/06/11,13:30,0.722,1.038,0.652,1.262,0.913,0.405,0.705,0.656,��,6.9,��
2020/06/11,13:40,0.723,1.036,0.653,1.260,0.914,0.407,0.705,0.655,��,9.2,��
2020/06/11,13:50,0.722,1.037,0.651,1.263,0.916,0.406,0.705,0.656,��,9.3,��
2020/06/11,14:00,0.725,1.033,0.652,1.263,0.914,0.404,0.704,0.655,��,10.3,��
2020/06/11,14:10,0.725,1.032,0.654,1.263,0.914,0.404,0.704,0.654,��,10.2,��
2020/06/11,14:20,0.725,1.034,0.655,1.262,0.916,0.404,0.706,0.656,��,10.7,��
2020/06/11,14:30,0.724,1.039,0.650,1.262,0.915,0.405,0.705,0.657,��,11.6,��
2020/06/11,14:40,0.726,1.036,0.648,1.262,0.915,0.404,0.706,0.656,��,11.3,��
2020/06/11,14:50,0.728,1.035,0.651,1.265,0.915,0.405,0.706,0.657,��,10.2,��
2020/06/11,15:00,0.726,1.039,0.653,1.266,0.914,0.404,0.708,0.656,��,8.8,��
2020/06/11,15:10,0.728,1.035,0.649,1.264,0.916,0.404,0.705,0.657,��,10.3,��
2020/06/11,15:20,0.728,1.035,0.650,1.261,0.915,0.405,0.707,0.660,��,9.9,��
2020/06/11,15:30,0.726,1.038,0.650,1.263,0.914,0.407,0.706,0.658,��,9.8,��
2020/06/11,15:40,0.729,1.038,0.650,1.263,0.915,0.406,0.704,0.659,��,9.0,��
2020/06/11,15:50,0.727,1.040,0.651,1.263,0.914,0.406,0.706,0.655,��쐼,8.5,��
2020/06/11,16:00,0.729,1.039,0.650,1.262,0.914,0.406,0.706,0.659,��쐼,7.9,��
2020/06/11,16:10,0.726,1.039,0.651,1.261,0.913,0.408,0.706,0.655,��,8.0,��
2020/06/11,16:20,0.727,1.039,0.650,1.261,0.913,0.406,0.706,0.656,��,8.5,��
2020/06/11,16:30,0.728,1.041,0.648,1.260,0.913,0.406,0.705,0.656,��쐼,6.4,��
2020/06/11,16:40,0.724,1.040,0.650,1.260,0.912,0.408,0.703,0.655,��쐼,9.2,�L
2020/06/11,16:50,0.729,1.041,0.651,1.261,0.916,0.409,0.703,0.657,�쐼,8.5,�L
2020/06/11,17:00,0.728,1.039,0.649,1.263,0.914,0.409,0.704,0.657,�쐼,9.0,�L
2020/06/11,17:10,0.728,1.037,0.650,1.260,0.910,0.409,0.704,0.656,��쐼,8.8,�L
2020/06/11,17:20,0.725,1.037,0.651,1.263,0.909,0.411,0.705,0.657,��,12.7,�L
2020/06/11,17:30,0.725,1.034,0.650,1.262,0.909,0.411,0.706,0.657,��,16.9,�L
2020/06/11,17:40,0.722,1.031,0.650,1.263,0.910,0.408,0.705,0.658,��,11.9,�L
2020/06/11,17:50,0.723,1.028,0.649,1.263,0.907,0.408,0.707,0.657,���쐼,6.6,�L
2020/06/11,18:00,0.723,1.028,0.647,1.261,0.907,0.408,0.704,0.657,�쐼,5.4,�L
2020/06/11,18:10,0.722,1.030,0.647,1.262,0.907,0.408,0.705,0.656,��,4.7,�L
2020/06/11,18:20,0.720,1.027,0.647,1.261,0.904,0.407,0.705,0.658,�쐼,3.8,�L
2020/06/11,18:30,0.723,1.027,0.645,1.262,0.905,0.407,0.705,0.656,���쐼,2.3,�L
2020/06/11,18:40,0.719,1.025,0.645,1.258,0.904,0.407,0.702,0.656,��,2.5,�L
2020/06/11,18:50,0.716,1.018,0.643,1.257,0.900,0.407,0.702,0.653,���k��,5.1,�L
2020/06/11,19:00,0.710,1.008,0.639,1.251,0.891,0.405,0.700,0.651,���쐼,1.5,�L
2020/06/11,19:10,0.710,1.007,0.637,1.247,0.888,0.406,0.698,0.651,��쓌,2.3,�L
2020/06/11,19:20,0.707,1.005,0.641,1.248,0.887,0.405,0.696,0.651,��쓌,2.3,��
2020/06/11,19:30,0.708,1.003,0.639,1.249,0.888,0.403,0.697,0.652,��,5.8,�L
2020/06/11,19:40,0.705,1.003,0.637,1.246,0.886,0.403,0.699,0.650,��,11.0,�L
2020/06/11,19:50,0.705,1.002,0.636,1.243,0.884,0.401,0.700,0.651,��,8.7,�L
2020/06/11,20:00,0.700,0.995,0.635,1.240,0.878,0.402,0.697,0.651,��,8.1,�L
2020/06/11,20:10,0.700,0.995,0.635,1.239,0.880,0.403,0.697,0.650,��,9.0,�L
2020/06/11,20:20,0.702,0.996,0.633,1.239,0.878,0.400,0.696,0.652,��,9.2,��
2020/06/11,20:30,0.699,0.997,0.631,1.240,0.880,0.402,0.699,0.650,��,8.4,��
2020/06/11,20:40,0.700,0.997,0.630,1.238,0.878,0.400,0.697,0.652,��,8.4,��
2020/06/11,20:50,0.700,0.999,0.630,1.237,0.879,0.400,0.698,0.652,��,9.1,��
2020/06/11,21:00,0.700,0.997,0.630,1.237,0.880,0.402,0.699,0.652,��,8.9,��
2020/06/11,21:10,0.698,0.997,0.634,1.239,0.880,0.401,0.698,0.653,��,9.4,��
2020/06/11,21:20,0.701,0.996,0.633,1.238,0.879,0.402,0.698,0.653,��,8.4,��
2020/06/11,21:30,0.701,0.998,0.634,1.238,0.878,0.402,0.698,0.653,��,8.3,��
2020/06/11,21:40,0.702,0.998,0.633,1.238,0.880,0.401,0.697,0.652,��,7.7,��
2020/06/11,21:50,0.701,1.000,0.636,1.239,0.881,0.402,0.698,0.651,��쐼,6.8,��
2020/06/11,22:00,0.701,0.998,0.633,1.238,0.881,0.402,0.699,0.652,��,5.8,��
2020/06/11,22:10,0.700,0.999,0.631,1.238,0.880,0.401,0.697,0.652,��,4.7,��
2020/06/11,22:20,0.700,0.998,0.634,1.238,0.882,0.403,0.699,0.651,��,5.3,��
2020/06/11,22:30,0.700,0.999,0.633,1.239,0.879,0.401,0.698,0.653,��,5.6,��
2020/06/11,22:40,0.701,1.001,0.634,1.240,0.879,0.401,0.697,0.652,��,6.4,��
2020/06/11,22:50,0.702,1.000,0.634,1.241,0.880,0.403,0.698,0.651,��,8.6,��
2020/06/11,23:00,0.700,1.000,0.633,1.242,0.880,0.403,0.697,0.652,��,7.0,��
2020/06/11,23:10,0.701,1.000,0.634,1.240,0.880,0.402,0.699,0.652,��,5.7,��
2020/06/11,23:20,0.701,1.002,0.634,1.241,0.879,0.403,0.699,0.650,��쐼,4.3,��
2020/06/11,23:30,0.698,0.999,0.636,1.238,0.880,0.403,0.698,0.652,��쐼,3.8,��
2020/06/11,23:40,0.703,1.001,0.635,1.239,0.880,0.405,0.697,0.653,��쐼,2.3,��
2020/06/11,23:50,0.701,1.002,0.637,1.239,0.882,0.405,0.698,0.653,��,1.9,��
